SCP
0 0 0 0 0 0 0 0 0 0 0 0 0 0 0 0 0 0 0 0 0 0 0 0 0 0 0 0 0 0 0 0 0 0 0 0 0 0 0 0 0 0 0
0 0 0 0 0 0 0 0 0 0 0 0 0 0 0 0 0 0 0 0 0 0 0 0 0 0 0 0 0 0 0 0 0 0 0 0 0 0 0 0 0 0 0
0 0 0 0 0 0 0 0 0 0 0 0 0 0 0 0 0 0 0 0 0 0 0 0 0 0 0 0 0 0 0 0 0 0 0 0 0 0 0 0 0 0 0
0 0 0 0 0 0 0 0 0 0 0 0 0 0 0 0 0 0 0 0 0 0 0 0 0 0 0 0 0 0 0 0 0 0 0 0 0 0 0 0 0 0 0
0 0 0 0 0 0 0 0 0 0 0 0 0 0 0 0 0 0 0 0 0 0 0 0 0 0 0 0 0 0 0 0 0 0 0 0 0 0 0 0 0 0 0
0 0 0 0 0 0 0 0 0 0 0 0 0 0 0 0 0 0 0 0 0 0 0 0 0 0 0 0 0 0 0 0 0 0 0 0 0 0 0 0 0 0 0
0 0 0 0 0 0 0 0 0 0 0 0 0 0 0 0 0 0 0 0 0 0 0 0 0 0 0 0 0 0 0 0 0 0 0 0 0 0 0 0 0 0 0
0 0 0 0 0 0 0 0 0 0 0 0 0 0 0 0 0 0 0 0 0 0 0 0 0 0 0 0 0 0 0 0 0 0 0 0 0 0 0 0 0 0 0
0 0 0 0 0 0 0 0 0 0 0 0 0 0 0 0 0 0 0 0 0 0 0 0 0 0 0 0 0 0 0 0 0 0 0 0 0 0 0 0 0 0 0
0 0 0 0 0 0 0 0 0 0 0 0 0 0 0 0 0 0 0 0 0 0 0 0 0 0 0 0 0 0 0 0 0 0 0 0 0 0 0 0 0 0 0
0 0 0 0 0 0 0 0 0 0 0 0 0 0 0 0 0 0 0 0 0 0 0 0 0 0 0 0 0 0 0 0 0 0 0 0 0 0 0 0 0 0 0
0 0 0 0 0 0 0 0 0 0 0 0 0 0 0 0 0 0 0 0 0 0 0 0 0 0 0 0 0 0 0 0 0 0 0 0 0 0 0 0 0 0 0
0 0 0 0 0 0 0 0 0 0 0 0 0 0 0 0 0 0 0 0 0 0 0 0 0 0 0 0 0 0 0 0 0 0 0 0 0 0 0 0 0 0 0
0 0 0 0 0 0 0 0 0 0 0 0 0 0 0 0 0 0 0 0 0 0 0 0 0 0 0 0 0 0 0 0 0 0 0 0 0 0 0 0 0 0 0
0 0 0 0 0 0 0 0 0 0 0 0 0 0 0 0 0 0 0 0 0 0 0 0 0 0 0 0 0 0 0 0 0 0 0 0 0 0 0 0 0 0 0
0 0 0 0 0 0 0 0 0 0 0 0 0 0 0 0 0 0 0 0 0 0 0 0 0 0 0 0 0 0 0 0 0 0 0 0 0 0 0 0 0 0 0
0 0 0 0 0 0 0 0 0 0 0 0 0 0 0 0 0 0 0 0 0 0 0 0 0 0 0 0 0 0 0 0 0 0 0 0 0 0 0 0 0 0 0
0 0 0 0 0 0 0 0 0 0 0 0 0 0 0 0 0 0 0 0 0 0 0 0 0 0 0 0 0 0 -0 -0 -0 -0 0 0 -0 -0 0 0 0 0 0
0 -0 -0 -0 -0 -0 -0 0 0 0 0 0 0 0 0 0 0 0 0 0 0 0 0 0 0 0 0 0 0 -0 -0 -0 -0 -0 -0 -0 -0 -0 0 0 0 0 0
-0 -0 -0 -0 -0 -0 0 0 0 0 0 0 0 0 0 0 0 0 0 0 0 0 0 0 0 0 -0 -0 -0 -0 -0 -0 -0 -0 -0 -0 -0 0 0 0 0 0 0
0 0 -0 -0 0 0 0 0 0 0 0 0 0 0 0 0 0 0 0 0 0 0 0 0 -0 -0 -0 -0 -0 -0 -0 -0 -0 -0 -0 0 0 0 0 0 0 0 0
0 -0 0 0 -0 0 -0 -0 0 0 0 0 0 0 0 0 0 0 0 0 0 0 0 0 -0 -0 -0 -0 -0 -0 -0 -0 -0 -0 0 0 0 0 0 0 -0 0 0
-0 -0 -0 -0 -0 -0 -0 -0 0 0 0 0 0 0 0 0 0 0 0 0 0 0 0 0 0 -0 -0 -0 0 0 0 0 0 0 0 0 0 0 0 0 0 0 0
-0 -0 -0 -0 -0 0 -0 0 0 0 -0 0 0 0 0 0 0 0 0 0 0 -0 0 0 0 0 0 0 0 0 0 0 0 0 -0 0 0 0 0 0 0 0 0
-0 -0 -0 -0 0 0 0 0 0 0 0 0 0 0 0 0 0 0 0 0 0 0 0 0 0 0 0 0 0 0 0 0 0 0 0 0 0 0 0 0 0 0 0
-0 0 0 0 0 0 0 0 0 0 0 0 0 0 0 0 0 0 0 0 0 0 0 0 0 0 0 0 0 0 0 0 0 0 0 0 0 0 0 0 0 0 0
Wind_Speed_500mb
75 75 71 62 58 66 65 55 51 47 47 43 39 39 39 36 46 42 36 31 29 26 27 32 28 19 14 16 15 16 17 20 25 26 28 32 33 36 37 32 32 34 36
81 82 80 69 66 69 66 59 53 47 46 45 39 38 33 28 36 41 31 34 34 31 31 31 29 27 25 25 27 30 32 34 39 40 44 38 41 43 43 42 43 44 44
90 87 88 78 70 64 69 64 58 53 47 46 40 40 37 34 37 36 37 36 37 33 33 33 29 33 36 34 37 41 51 40 50 52 55 51 56 49 54 53 52 55 62
90 91 91 83 73 68 70 67 62 57 52 51 43 39 35 35 40 41 37 39 38 36 34 34 32 34 37 39 41 42 44 44 46 47 47 53 61 65 64 65 69 72 70
81 64 88 92 80 75 68 68 64 59 52 50 49 45 43 45 40 36 38 40 40 38 36 39 39 37 39 39 42 46 48 48 47 56 59 56 54 52 61 76 70 87 76
60 92 96 77 98 82 70 65 67 60 53 50 50 46 45 47 43 39 36 35 34 37 38 35 43 47 46 48 49 51 55 62 59 63 64 66 63 60 59 63 59 45 73
49 62 62 90 84 70 72 56 62 61 57 51 50 50 45 44 41 33 34 37 42 44 47 49 51 49 50 49 55 59 63 65 66 68 71 72 71 73 72 68 70 68 46
62 61 70 64 50 62 64 51 53 52 49 50 47 48 26 32 34 30 31 33 39 44 47 50 50 51 54 59 65 64 65 67 69 70 70 69 69 70 73 75 75 73 71
65 69 54 30 33 53 51 42 43 50 51 45 47 38 13 13 33 34 39 43 42 46 48 51 51 50 52 57 56 57 58 61 63 63 66 69 69 68 69 75 79 79 78
36 44 40 30 25 30 43 53 51 51 53 61 50 47 30 17 16 14 18 22 29 30 37 39 40 40 41 39 40 40 45 53 60 61 63 62 62 64 65 67 69 71 73
56 70 23 26 32 63 65 66 58 56 53 47 49 44 44 36 35 35 18 26 29 30 23 24 34 31 26 25 31 33 37 40 44 51 55 57 61 63 65 64 64 64 71
53 45 49 48 57 67 52 43 50 48 54 52 40 38 37 36 33 35 34 33 29 18 16 19 16 20 25 28 36 39 42 44 48 51 53 55 59 63 64 64 58 52 53
61 60 61 58 64 55 51 46 40 34 30 30 37 38 33 32 29 24 21 20 21 15 12 15 19 23 28 34 42 42 44 48 51 54 57 61 64 66 69 71 68 58 58
55 58 60 59 56 57 55 55 41 34 35 31 29 25 24 18 13 16 12 16 11 10 9 11 23 28 30 37 44 45 49 53 56 61 65 68 71 74 76 74 70 68 68
52 51 56 55 61 59 51 43 39 41 40 37 37 33 27 26 18 12 9 3 2 7 11 15 20 30 38 43 49 50 55 59 62 65 69 72 74 77 80 80 74 64 62
59 56 60 61 57 54 53 51 52 48 40 39 33 25 26 26 22 20 17 12 9 4 8 16 28 38 44 50 55 58 61 65 70 71 73 74 74 78 80 73 71 68 71
75 77 77 73 69 67 58 53 50 45 41 43 42 36 34 29 23 18 15 12 10 12 18 25 34 39 45 52 57 62 70 75 77 79 78 79 78 76 67 66 68 75 73
84 82 77 74 66 60 56 53 53 50 48 45 42 32 31 24 18 18 16 16 16 20 27 35 43 50 55 65 72 77 81 81 86 84 84 81 75 69 65 75 74 76 74
80 74 71 73 71 69 63 58 53 48 43 40 36 30 27 21 20 23 28 32 36 39 42 47 53 57 64 73 80 84 86 87 87 87 83 77 73 76 79 80 80 79 80
82 80 77 75 70 66 60 54 48 44 40 38 34 32 31 32 35 35 37 39 40 43 48 51 56 62 71 77 84 90 96 93 97 94 81 78 91 92 91 89 85 85 85
80 77 74 71 66 60 55 50 45 43 39 37 34 35 36 38 43 45 44 46 49 53 53 54 58 70 76 83 86 89 93 96 97 80 85 108 105 108 102 97 93 91 85
74 70 69 66 64 61 49 43 41 40 38 38 41 40 41 43 47 50 49 51 51 52 54 58 65 71 75 75 79 81 86 94 82 81 111 120 114 120 111 109 106 100 89
66 64 62 58 58 52 43 39 40 40 39 41 44 47 48 50 50 52 50 54 56 57 53 58 66 66 72 71 74 78 81 85 96 106 110 129 118 119 119 117 116 104 90
57 56 53 51 48 45 38 36 37 41 44 46 46 47 50 52 54 58 58 61 62 60 56 58 59 61 61 63 64 68 78 90 103 109 97 115 118 131 133 133 115 89 88
48 46 42 39 35 39 37 37 34 34 35 41 45 49 51 54 61 60 64 65 65 64 64 60 55 57 59 58 58 69 81 97 117 119 104 83 104 138 135 128 103 99 101
38 35 35 34 31 28 25 25 27 29 35 45 50 50 55 58 57 57 64 68 71 71 75 75 68 60 58 59 61 69 84 100 110 123 94 107 121 105 83 95 100 112 120
Wind_Direction_500mb
215 212 209 212 217 207 202 209 206 206 207 206 206 206 206 210 208 214 213 225 234 241 255 273 279 278 239 242 249 261 272 284 288 281 283 290 287 288 286 285 293 290 290
218 215 211 212 220 212 201 207 206 212 210 212 213 203 198 205 219 216 221 235 241 244 251 264 270 274 269 271 279 287 282 284 279 277 274 279 281 288 292 281 292 292 289
222 219 214 210 219 217 201 206 207 213 216 216 216 203 204 207 212 225 227 234 245 246 245 257 261 256 256 259 261 266 266 270 272 276 271 282 276 280 281 281 280 287 285
223 228 217 213 214 215 204 205 207 213 217 214 213 206 211 215 217 224 231 239 240 246 254 256 267 266 263 266 269 268 271 272 274 275 272 273 274 278 278 278 279 282 281
231 243 219 210 215 212 208 205 205 214 214 212 208 209 219 229 240 230 237 243 248 253 255 266 266 269 261 260 264 269 271 271 270 267 264 263 264 266 268 275 284 274 273
243 230 223 223 212 205 206 207 207 216 219 217 212 217 221 223 228 235 237 252 256 256 252 257 256 259 261 261 264 267 270 268 267 270 272 273 270 269 271 270 262 288 259
220 231 230 230 223 210 206 207 210 218 218 219 218 214 213 216 221 233 229 236 246 251 254 255 259 260 264 267 269 267 265 269 270 270 271 271 271 271 268 267 259 259 256
221 218 222 217 225 213 210 202 214 220 221 220 214 223 191 186 203 209 225 241 241 251 256 255 254 258 259 263 265 265 265 265 265 268 270 272 274 272 267 266 264 259 263
221 213 210 224 207 222 207 201 208 219 227 223 222 219 185 190 203 217 229 238 243 250 254 257 260 259 257 260 256 258 258 260 265 269 272 273 273 275 276 274 272 272 274
208 205 178 162 209 201 219 229 209 218 225 229 226 232 211 167 183 184 200 222 230 236 249 247 245 244 250 254 259 266 268 269 271 274 275 275 276 278 278 277 275 273 272
193 185 206 196 211 205 215 210 207 215 223 225 218 225 229 216 227 237 231 222 221 236 224 235 252 253 255 268 270 277 279 282 284 281 284 287 288 286 285 284 283 282 280
180 197 206 181 196 202 202 199 209 215 217 220 220 219 225 227 230 232 225 232 226 216 237 245 259 261 274 292 292 298 305 303 300 296 296 294 289 287 289 290 295 303 302
182 181 180 181 193 194 198 202 207 205 210 204 201 217 216 236 212 212 219 201 211 217 244 266 276 292 298 307 305 306 300 295 293 294 293 293 295 295 294 293 295 302 302
185 178 180 182 185 196 203 195 193 195 190 198 194 194 179 178 210 208 216 197 172 197 236 270 297 315 307 306 303 305 302 301 301 300 298 298 298 298 296 295 300 302 302
143 153 161 166 149 147 149 155 159 151 144 129 116 117 116 108 115 129 134 126 121 340 298 277 300 304 304 305 304 305 304 303 304 303 302 303 302 300 300 302 304 305 303
132 132 127 126 123 122 122 123 116 110 110 108 103 98 90 84 79 88 92 83 65 1 302 286 297 305 311 313 312 310 309 308 307 307 308 309 308 308 308 309 307 307 303
122 122 119 116 113 112 111 112 106 101 101 100 99 98 92 83 77 70 63 46 18 346 327 312 306 308 308 309 312 316 316 317 316 317 319 320 320 321 319 315 311 308 305
114 112 110 108 107 103 100 100 104 106 104 102 95 92 84 73 64 47 34 25 4 344 338 329 324 326 325 326 324 323 324 324 322 324 326 325 324 326 320 317 317 311 305
109 107 107 106 107 107 107 103 101 98 92 87 83 77 72 64 53 36 22 11 3 354 347 339 332 330 328 327 325 326 326 326 327 329 329 326 331 327 323 324 318 314 308
110 109 107 106 103 100 98 97 95 90 84 77 70 62 52 42 35 22 13 5 356 347 344 337 334 331 331 332 330 330 328 331 330 333 328 330 329 325 325 321 319 313 308
109 107 106 102 100 98 90 85 81 74 68 64 57 49 38 26 21 14 6 359 353 349 343 339 336 334 335 335 334 334 331 331 330 334 328 327 326 323 324 321 319 313 318
107 108 106 104 99 90 85 80 74 69 62 54 45 35 27 17 9 10 5 359 354 349 342 338 338 336 335 335 333 334 332 332 327 329 326 320 324 324 323 324 319 321 315
106 101 97 94 91 87 79 69 61 55 48 41 33 26 18 11 1 355 356 349 346 345 341 338 336 337 332 334 330 326 327 326 322 323 323 321 327 320 324 321 320 319 314
99 96 95 92 87 81 73 61 52 44 35 30 22 15 9 4 1 350 351 346 344 342 340 338 333 329 326 326 324 321 322 321 316 321 326 317 325 323 323 316 317 317 318
91 89 85 83 80 72 60 48 39 35 25 21 15 9 4 1 359 353 347 342 339 336 335 334 329 325 322 321 318 319 323 323 322 323 326 317 316 318 317 317 318 320 320
84 83 77 72 67 63 57 41 24 21 19 16 10 3 1 359 355 351 346 342 337 335 333 330 329 326 322 320 321 324 328 326 325 320 321 315 317 316 312 309 311 322 318
Wind_Speed_850mb
75 75 71 62 58 66 65 55 51 47 47 43 39 39 39 36 46 42 36 31 29 26 27 32 28 19 14 16 15 16 17 20 25 26 28 32 33 36 37 32 32 34 36
81 82 80 69 66 69 66 59 53 47 46 45 39 38 33 28 36 41 31 34 34 31 31 31 29 27 25 25 27 30 32 34 39 40 44 38 41 43 43 42 43 44 44
90 87 88 78 70 64 69 64 58 53 47 46 40 40 37 34 37 36 37 36 37 33 33 33 29 33 36 34 37 41 51 40 50 52 55 51 56 49 54 53 52 55 62
90 91 91 83 73 68 70 67 62 57 52 51 43 39 35 35 40 41 37 39 38 36 34 34 32 34 37 39 41 42 44 44 46 47 47 53 61 65 64 65 69 72 70
81 64 88 92 80 75 68 68 64 59 52 50 49 45 43 45 40 36 38 40 40 38 36 39 39 37 39 39 42 46 48 48 47 56 59 56 54 52 61 76 70 87 76
60 92 96 77 98 82 70 65 67 60 53 50 50 46 45 47 43 39 36 35 34 37 38 35 43 47 46 48 49 51 55 62 59 63 64 66 63 60 59 63 59 45 73
49 62 62 90 84 70 72 56 62 61 57 51 50 50 45 44 41 33 34 37 42 44 47 49 51 49 50 49 55 59 63 65 66 68 71 72 71 73 72 68 70 68 46
62 61 70 64 50 62 64 51 53 52 49 50 47 48 26 32 34 30 31 33 39 44 47 50 50 51 54 59 65 64 65 67 69 70 70 69 69 70 73 75 75 73 71
65 69 54 30 33 53 51 42 43 50 51 45 47 38 13 13 33 34 39 43 42 46 48 51 51 50 52 57 56 57 58 61 63 63 66 69 69 68 69 75 79 79 78
36 44 40 30 25 30 43 53 51 51 53 61 50 47 30 17 16 14 18 22 29 30 37 39 40 40 41 39 40 40 45 53 60 61 63 62 62 64 65 67 69 71 73
56 70 23 26 32 63 65 66 58 56 53 47 49 44 44 36 35 35 18 26 29 30 23 24 34 31 26 25 31 33 37 40 44 51 55 57 61 63 65 64 64 64 71
53 45 49 48 57 67 52 43 50 48 54 52 40 38 37 36 33 35 34 33 29 18 16 19 16 20 25 28 36 39 42 44 48 51 53 55 59 63 64 64 58 52 53
61 60 61 58 64 55 51 46 40 34 30 30 37 38 33 32 29 24 21 20 21 15 12 15 19 23 28 34 42 42 44 48 51 54 57 61 64 66 69 71 68 58 58
55 58 60 59 56 57 55 55 41 34 35 31 29 25 24 18 13 16 12 16 11 10 9 11 23 28 30 37 44 45 49 53 56 61 65 68 71 74 76 74 70 68 68
52 51 56 55 61 59 51 43 39 41 40 37 37 33 27 26 18 12 9 3 2 7 11 15 20 30 38 43 49 50 55 59 62 65 69 72 74 77 80 80 74 64 62
59 56 60 61 57 54 53 51 52 48 40 39 33 25 26 26 22 20 17 12 9 4 8 16 28 38 44 50 55 58 61 65 70 71 73 74 74 78 80 73 71 68 71
75 77 77 73 69 67 58 53 50 45 41 43 42 36 34 29 23 18 15 12 10 12 18 25 34 39 45 52 57 62 70 75 77 79 78 79 78 76 67 66 68 75 73
84 82 77 74 66 60 56 53 53 50 48 45 42 32 31 24 18 18 16 16 16 20 27 35 43 50 55 65 72 77 81 81 86 84 84 81 75 69 65 75 74 76 74
80 74 71 73 71 69 63 58 53 48 43 40 36 30 27 21 20 23 28 32 36 39 42 47 53 57 64 73 80 84 86 87 87 87 83 77 73 76 79 80 80 79 80
82 80 77 75 70 66 60 54 48 44 40 38 34 32 31 32 35 35 37 39 40 43 48 51 56 62 71 77 84 90 96 93 97 94 81 78 91 92 91 89 85 85 85
80 77 74 71 66 60 55 50 45 43 39 37 34 35 36 38 43 45 44 46 49 53 53 54 58 70 76 83 86 89 93 96 97 80 85 108 105 108 102 97 93 91 85
74 70 69 66 64 61 49 43 41 40 38 38 41 40 41 43 47 50 49 51 51 52 54 58 65 71 75 75 79 81 86 94 82 81 111 120 114 120 111 109 106 100 89
66 64 62 58 58 52 43 39 40 40 39 41 44 47 48 50 50 52 50 54 56 57 53 58 66 66 72 71 74 78 81 85 96 106 110 129 118 119 119 117 116 104 90
57 56 53 51 48 45 38 36 37 41 44 46 46 47 50 52 54 58 58 61 62 60 56 58 59 61 61 63 64 68 78 90 103 109 97 115 118 131 133 133 115 89 88
48 46 42 39 35 39 37 37 34 34 35 41 45 49 51 54 61 60 64 65 65 64 64 60 55 57 59 58 58 69 81 97 117 119 104 83 104 138 135 128 103 99 101
38 35 35 34 31 28 25 25 27 29 35 45 50 50 55 58 57 57 64 68 71 71 75 75 68 60 58 59 61 69 84 100 110 123 94 107 121 105 83 95 100 112 120
Wind_Direction_850mb
215 212 209 212 217 207 202 209 206 206 207 206 206 206 206 210 208 214 213 225 234 241 255 273 279 278 239 242 249 261 272 284 288 281 283 290 287 288 286 285 293 290 290
218 215 211 212 220 212 201 207 206 212 210 212 213 203 198 205 219 216 221 235 241 244 251 264 270 274 269 271 279 287 282 284 279 277 274 279 281 288 292 281 292 292 289
222 219 214 210 219 217 201 206 207 213 216 216 216 203 204 207 212 225 227 234 245 246 245 257 261 256 256 259 261 266 266 270 272 276 271 282 276 280 281 281 280 287 285
223 228 217 213 214 215 204 205 207 213 217 214 213 206 211 215 217 224 231 239 240 246 254 256 267 266 263 266 269 268 271 272 274 275 272 273 274 278 278 278 279 282 281
231 243 219 210 215 212 208 205 205 214 214 212 208 209 219 229 240 230 237 243 248 253 255 266 266 269 261 260 264 269 271 271 270 267 264 263 264 266 268 275 284 274 273
243 230 223 223 212 205 206 207 207 216 219 217 212 217 221 223 228 235 237 252 256 256 252 257 256 259 261 261 264 267 270 268 267 270 272 273 270 269 271 270 262 288 259
220 231 230 230 223 210 206 207 210 218 218 219 218 214 213 216 221 233 229 236 246 251 254 255 259 260 264 267 269 267 265 269 270 270 271 271 271 271 268 267 259 259 256
221 218 222 217 225 213 210 202 214 220 221 220 214 223 191 186 203 209 225 241 241 251 256 255 254 258 259 263 265 265 265 265 265 268 270 272 274 272 267 266 264 259 263
221 213 210 224 207 222 207 201 208 219 227 223 222 219 185 190 203 217 229 238 243 250 254 257 260 259 257 260 256 258 258 260 265 269 272 273 273 275 276 274 272 272 274
208 205 178 162 209 201 219 229 209 218 225 229 226 232 211 167 183 184 200 222 230 236 249 247 245 244 250 254 259 266 268 269 271 274 275 275 276 278 278 277 275 273 272
193 185 206 196 211 205 215 210 207 215 223 225 218 225 229 216 227 237 231 222 221 236 224 235 252 253 255 268 270 277 279 282 284 281 284 287 288 286 285 284 283 282 280
180 197 206 181 196 202 202 199 209 215 217 220 220 219 225 227 230 232 225 232 226 216 237 245 259 261 274 292 292 298 305 303 300 296 296 294 289 287 289 290 295 303 302
182 181 180 181 193 194 198 202 207 205 210 204 201 217 216 236 212 212 219 201 211 217 244 266 276 292 298 307 305 306 300 295 293 294 293 293 295 295 294 293 295 302 302
185 178 180 182 185 196 203 195 193 195 190 198 194 194 179 178 210 208 216 197 172 197 236 270 297 315 307 306 303 305 302 301 301 300 298 298 298 298 296 295 300 302 302
143 153 161 166 149 147 149 155 159 151 144 129 116 117 116 108 115 129 134 126 121 340 298 277 300 304 304 305 304 305 304 303 304 303 302 303 302 300 300 302 304 305 303
132 132 127 126 123 122 122 123 116 110 110 108 103 98 90 84 79 88 92 83 65 1 302 286 297 305 311 313 312 310 309 308 307 307 308 309 308 308 308 309 307 307 303
122 122 119 116 113 112 111 112 106 101 101 100 99 98 92 83 77 70 63 46 18 346 327 312 306 308 308 309 312 316 316 317 316 317 319 320 320 321 319 315 311 308 305
114 112 110 108 107 103 100 100 104 106 104 102 95 92 84 73 64 47 34 25 4 344 338 329 324 326 325 326 324 323 324 324 322 324 326 325 324 326 320 317 317 311 305
109 107 107 106 107 107 107 103 101 98 92 87 83 77 72 64 53 36 22 11 3 354 347 339 332 330 328 327 325 326 326 326 327 329 329 326 331 327 323 324 318 314 308
110 109 107 106 103 100 98 97 95 90 84 77 70 62 52 42 35 22 13 5 356 347 344 337 334 331 331 332 330 330 328 331 330 333 328 330 329 325 325 321 319 313 308
109 107 106 102 100 98 90 85 81 74 68 64 57 49 38 26 21 14 6 359 353 349 343 339 336 334 335 335 334 334 331 331 330 334 328 327 326 323 324 321 319 313 318
107 108 106 104 99 90 85 80 74 69 62 54 45 35 27 17 9 10 5 359 354 349 342 338 338 336 335 335 333 334 332 332 327 329 326 320 324 324 323 324 319 321 315
106 101 97 94 91 87 79 69 61 55 48 41 33 26 18 11 1 355 356 349 346 345 341 338 336 337 332 334 330 326 327 326 322 323 323 321 327 320 324 321 320 319 314
99 96 95 92 87 81 73 61 52 44 35 30 22 15 9 4 1 350 351 346 344 342 340 338 333 329 326 326 324 321 322 321 316 321 326 317 325 323 323 316 317 317 318
91 89 85 83 80 72 60 48 39 35 25 21 15 9 4 1 359 353 347 342 339 336 335 334 329 325 322 321 318 319 323 323 322 323 326 317 316 318 317 317 318 320 320
84 83 77 72 67 63 57 41 24 21 19 16 10 3 1 359 355 351 346 342 337 335 333 330 329 326 322 320 321 324 328 326 325 320 321 315 317 316 312 309 311 322 318